[[{"header":{"parameterUnit":"m.s-1","parameterCategory":1,"la1":30.2991,"la2":30.254,"lo1":-89.0895,"lo2":-89.0444,"dy":0.0017,"dx":0.0017,"nx":28,"ny":28,"refTime":"2025-11-07T09:00:00:Z","depth":0,"parameterNumber":2,"parameterNumberName":"U-component_of_WINDS"},"data":[0,0,0,0,0,0,0,0,0,0,0,0,0,0,0,0,0,0,0,0,0,0,0,0,0,0,0,0,0,0,0,0,0,0,0,0,0,0,0,0,0,0,0,0,0,0,0,0,0,0,0,0,0,0,0,0,0,0,0.1252,0.1253,0,0.1387,0.1389,0.139,0.1409,0.1408,0.1406,0.1405,0.1547,0.1552,0.1557,0,0,0,0,0,0,0,0,0,0,0,0,0,0.1012,0.1016,0.1252,0.1253,0.1255,0.1387,0.1389,0.1391,0.1409,0.1408,0.1406,0.1405,0.1546,0.1551,0.1557,0,0,0,0,0,0,0,0,0,0,0,0,0,0.1129,0.1018,0.1251,0.128,0.1284,0.1387,0.1389,0.1391,0.1409,0.1408,0.1406,0.1404,0.1544,0.1551,0.1558,0.1643,0,0,0.1581,0.1584,0,0,0,0,0,0,0,0,0.1122,0.1137,0.1274,0.1278,0.1283,0.1379,0.1357,0.1476,0.141,0.1362,0.1405,0.1403,0.1493,0.1505,0.1534,0.1649,0.1656,0.1582,0.1586,0.1589,0.1591,0,0,0,0,0,0,0,0.1114,0.1132,0.1305,0.1276,0.1281,0.1287,0.1302,0.1379,0.1437,0.1366,0.1368,0.1383,0.1495,0.1527,0.1538,0.1658,0.1581,0.1588,0.1593,0.1596,0.1852,0.1854,0,0,0,0,0,0,0.11,0.1125,0.1301,0.1309,0.1196,0.1293,0.1309,0.135,0.1436,0.1447,0.1385,0.1384,0.1515,0.1529,0.1543,0.165,0.1589,0.1596,0.1601,0.185,0.1852,0.1855,0,0,0,0,0,0,0.1095,0.1116,0.1296,0.1218,0.1241,0.1299,0.1345,0.1354,0.1386,0.145,0.1461,0.1407,0.1514,0.1532,0.1618,0.1655,0.16,0.1606,0.1847,0.1851,0.1854,0.1863,0,0,0,0,0,0,0.1088,0.1114,0.1145,0.1218,0.1245,0.1368,0.1347,0.1358,0.1398,0.1398,0.1473,0.1484,0.1514,0.1607,0.1626,0.1664,0.1612,0.1844,0.1848,0.1853,0.186,0.1866,0.1872,0,0,0,0,0,0.1079,0.1143,0.1147,0.1168,0.1286,0.137,0.1385,0.1417,0.1401,0.1435,0.1476,0.1482,0.1647,0.1616,0.1637,0.1678,0.1842,0.1847,0.1852,0.1857,0.1865,0.1872,0,0,0,0,0,0,0.1073,0.1153,0.1158,0.1247,0.1301,0.1372,0.1415,0.1425,0.1486,0.1483,0.1521,0.1538,0.1623,0.1659,0.1622,0.1766,0.1743,0.1753,0.174,0.1748,0.1754,0.1745,0.1619,0,0,0,0,0,0.1082,0.1142,0.1209,0.1281,0.1308,0.1357,0.1394,0.1415,0.1473,0.1496,0.1544,0.1601,0.1667,0.1709,0.1772,0.1864,0.1883,0.1903,0.1909,0.1914,0.1923,0.1977,0.1988,0.1872,0.1872,0.1872,0,0,0.1101,0.1152,0.1188,0.1281,0.1325,0.1389,0.1376,0.1443,0.1491,0.1507,0.1591,0.1628,0.1695,0.1785,0.1827,0.1818,0.1959,0.1921,0.1924,0.1931,0.1984,0.1995,0.2004,0.1876,0.1875,0.1875,0,0,0.1169,0.1212,0.1278,0.1323,0.1391,0.1423,0.1439,0.1509,0.1534,0.1619,0.1634,0.1691,0.1802,0.185,0.1889,0.1976,0.1984,0.1995,0.2028,0.2081,0.209,0.2098,0.2132,0.2143,0.2003,0.2003,0.2003,0,0.1184,0.1279,0.1311,0.1378,0.142,0.1436,0.1504,0.1547,0.1632,0.1661,0.1648,0.1789,0.1835,0.1938,0.1959,0.1989,0.201,0.1988,0.2086,0.2094,0.2103,0.2135,0.2148,0.2004,0.2004,0.2004,0.2004,0,0.1296,0.1362,0.1407,0.1489,0.1535,0.1602,0.1646,0.1689,0.1705,0.174,0.1828,0.1883,0.1959,0.1985,0.2001,0.2091,0.2083,0.2077,0.2056,0.2114,0.2146,0.2158,0.2006,0.2005,0.2005,0.2005,0,0,0.1364,0.1463,0.148,0.1518,0.1594,0.1647,0.1715,0.1789,0.1827,0.1885,0.1945,0.2039,0.2035,0.2079,0.2101,0.2147,0.2215,0.2136,0.2139,0.2151,0.2321,0.2326,0.234,0.2221,0.2223,0.2225,0.2316,0,0.1443,0.1565,0.1597,0.1701,0.1764,0.1781,0.1842,0.1896,0.193,0.1989,0.2027,0.2094,0.2082,0.2109,0.2155,0.2197,0.225,0.2191,0.228,0.2282,0.2265,0.2356,0.2361,0.2444,0.2328,0.233,0.2332,0,0.1551,0.1612,0.1723,0.1793,0.1821,0.1874,0.1945,0.2001,0.2063,0.2085,0.2135,0.2153,0.2227,0.22,0.2304,0.2263,0.2301,0.2327,0.2332,0.2343,0.2312,0.2372,0.2471,0.2485,0.2351,0.2349,0.2348,0,0.1592,0.1702,0.1784,0.1815,0.1899,0.1936,0.1973,0.2033,0.2076,0.2139,0.2168,0.2238,0.2277,0.2332,0.2369,0.2346,0.2472,0.2447,0.2494,0.2493,0.2521,0.252,0.263,0.2541,0.2541,0.2541,0.2541,0,0.1678,0.1746,0.1804,0.1854,0.1932,0.1967,0.2043,0.208,0.2134,0.2194,0.2212,0.2268,0.2312,0.2374,0.2404,0.2487,0.2504,0.2525,0.2533,0.2525,0.2523,0.2552,0.2549,0.2544,0.2544,0.2543,0.2542,0,0.1738,0.1779,0.187,0.1941,0.1961,0.2015,0.2077,0.2128,0.2162,0.2237,0.2257,0.2312,0.2386,0.2428,0.2521,0.2541,0.2635,0.2638,0.2614,0.2617,0.2663,0.2659,0.2799,0.282,0.2714,0.2715,0.2716,0,0.1791,0.1845,0.1922,0.1963,0.2,0.2065,0.211,0.2147,0.2193,0.2269,0.2311,0.2386,0.2448,0.2566,0.2615,0.2687,0.2694,0.2738,0.2705,0.2696,0.2698,0.2695,0.2702,0.2744,0.2745,0.2746,0.2747,0,0.1882,0.19,0.1963,0.2034,0.2086,0.2144,0.2201,0.2233,0.2281,0.2331,0.2407,0.2455,0.2551,0.2626,0.2702,0.2741,0.2753,0.2756,0.2772,0.2766,0.275,0.2762,0.2632,0.2754,0.2753,0.2752,0.2752,0.2752,0.1943,0.1992,0.2054,0.2125,0.2171,0.2225,0.2276,0.2318,0.2381,0.2462,0.248,0.2561,0.2624,0.2728,0.2769,0.2833,0.2826,0.2847,0.2853,0.2858,0.2861,0.2738,0.2847,0.2847,0.2847,0.2847,0.2847,0,0.2037,0.2078,0.2142,0.2222,0.2278,0.2282,0.2346,0.2393,0.2464,0.2521,0.2582,0.2671,0.2744,0.2799,0.2874,0.2916,0.2923,0.2935,0.2933,0.2943,0.2862,0.2843,0.2928,0.2928,0.2928,0.2928,0.2928,0.2928,0.2092,0.2176,0.2202,0.231,0.2351,0.243,0.2467,0.2517,0.2563,0.2661,0.2722,0.2757,0.2815,0.2895,0.2963,0.2978,0.3006,0.3017,0.3032,0.2957,0.2948,0.294,0.2922,0.3022,0.3022,0.3108,0.3109,0.3109]},{"header":{"parameterUnit":"m.s-1","parameterCategory":1,"la1":30.2991,"la2":30.254,"lo1":-89.0895,"lo2":-89.0444,"dy":0.0017,"dx":0.0017,"nx":28,"ny":28,"refTime":"2025-11-07T09:00:00:Z","depth":0,"parameterNumber":3,"parameterNumberName":"V-component_of_WINDS"},"data":[0,0,0,0,0,0,0,0,0,0,0,0,0,0,0,0,0,0,0,0,0,0,0,0,0,0,0,0,0,0,0,0,0,0,0,0,0,0,0,0,0,0,0,0,0,0,0,0,0,0,0,0,0,0,0,0,0,0,4.1521,4.1522,0,4.1633,4.1634,4.1635,4.1599,4.1596,4.1594,4.1592,4.1698,4.1703,4.1708,0,0,0,0,0,0,0,0,0,0,0,0,0,4.1269,4.1274,4.1521,4.1522,4.1524,4.1632,4.1634,4.1635,4.1599,4.1596,4.1593,4.1591,4.1696,4.1702,4.1708,0,0,0,0,0,0,0,0,0,0,0,0,0,4.1379,4.1276,4.1521,4.1519,4.152,4.1632,4.1634,4.1636,4.16,4.1596,4.1592,4.1589,4.1694,4.1702,4.1709,4.1827,0,0,4.1732,4.1736,0,0,0,0,0,0,0,0,4.1373,4.1389,4.1518,4.1519,4.1521,4.1598,4.1584,4.17,4.1601,4.1569,4.1592,4.1587,4.1667,4.1677,4.1705,4.1832,4.1837,4.1733,4.1738,4.1741,4.1743,0,0,0,0,0,0,0,4.1366,4.1384,4.1565,4.152,4.1521,4.151,4.1522,4.1606,4.1636,4.1572,4.1569,4.1583,4.1667,4.1698,4.1707,4.1839,4.1733,4.174,4.1744,4.1747,4.207,4.2074,0,0,0,0,0,0,4.1358,4.1377,4.1561,4.1568,4.1437,4.1518,4.1531,4.1577,4.1636,4.1641,4.1586,4.1581,4.1687,4.1699,4.1711,4.1856,4.1741,4.1748,4.1752,4.2066,4.2071,4.2075,0,0,0,0,0,0,4.1353,4.1375,4.1557,4.1472,4.1495,4.1526,4.1578,4.1581,4.1612,4.1647,4.1651,4.1613,4.1685,4.17,4.18,4.1859,4.1751,4.1758,4.2061,4.2067,4.2073,4.2144,0,0,0,0,0,0,4.1346,4.1373,4.142,4.1474,4.1499,4.1646,4.1581,4.1586,4.1626,4.162,4.1673,4.1678,4.1683,4.1789,4.1807,4.1867,4.1764,4.2056,4.2064,4.2071,4.2137,4.2152,4.2165,0,0,0,0,0,4.1337,4.1434,4.1423,4.1445,4.1559,4.165,4.1664,4.167,4.1631,4.1678,4.17,4.1676,4.1849,4.1799,4.182,4.1883,4.2052,4.2062,4.207,4.2131,4.2149,4.2165,0,0,0,0,0,0,4.1383,4.1441,4.1429,4.1547,4.1594,4.1643,4.1702,4.1689,4.1746,4.1738,4.174,4.1752,4.1855,4.1878,4.1822,4.2001,4.1944,4.1958,4.1983,4.2001,4.2015,4.2008,4.177,0,0,0,0,0,4.1407,4.1479,4.1524,4.1623,4.1647,4.1671,4.171,4.1711,4.1759,4.1778,4.1808,4.1853,4.1918,4.196,4.2021,4.2139,4.215,4.2192,4.2206,4.2218,4.223,4.2296,4.2316,4.2105,4.2105,4.2104,0,0,4.1457,4.1498,4.1542,4.1633,4.167,4.1742,4.1688,4.1766,4.1819,4.1789,4.1887,4.1909,4.196,4.207,4.212,4.2092,4.2291,4.2229,4.2238,4.2245,4.2307,4.2328,4.2345,4.2111,4.211,4.2109,0,0,4.1587,4.1624,4.1712,4.1751,4.1808,4.1823,4.1844,4.1896,4.1912,4.201,4.1989,4.205,4.2161,4.2199,4.2233,4.2377,4.2358,4.2396,4.247,4.2535,4.2551,4.2566,4.262,4.2639,4.2408,4.2408,4.2408,0,4.1641,4.1752,4.1758,4.1839,4.188,4.1859,4.1948,4.1983,4.2056,4.2084,4.2053,4.2193,4.2225,4.2345,4.238,4.2407,4.2431,4.2391,4.2549,4.2564,4.2578,4.2629,4.2649,4.2412,4.2412,4.2411,4.2411,0,4.1817,4.1894,4.1957,4.2033,4.208,4.2164,4.2182,4.2228,4.2225,4.2243,4.2343,4.2381,4.245,4.2478,4.2473,4.2597,4.2579,4.2548,4.2492,4.2602,4.2651,4.267,4.2419,4.2417,4.2416,4.2415,0,0,4.198,4.2059,4.2082,4.2117,4.2179,4.2238,4.232,4.2391,4.2432,4.2482,4.2552,4.2646,4.2619,4.2657,4.2656,4.2712,4.2827,4.2675,4.2676,4.2704,4.2968,4.2993,4.3016,4.2814,4.2817,4.282,4.2965,0,4.2116,4.2266,4.2274,4.2408,4.248,4.246,4.2532,4.2577,4.2596,4.2657,4.2675,4.2744,4.2702,4.2725,4.2779,4.2802,4.288,4.2791,4.2878,4.2881,4.287,4.3041,4.3067,4.3202,4.2983,4.2986,4.2989,0,4.2296,4.2357,4.25,4.2554,4.2584,4.2649,4.2715,4.2774,4.2824,4.2833,4.2877,4.2869,4.2951,4.2891,4.3005,4.2944,4.2979,4.2996,4.3001,4.3011,4.2944,4.3058,4.3245,4.3266,4.3018,4.3016,4.3013,0,4.2404,4.252,4.2622,4.2651,4.2716,4.2763,4.2791,4.2837,4.288,4.2937,4.2964,4.3028,4.3064,4.3113,4.3122,4.3076,4.3237,4.3176,4.3247,4.3248,4.3285,4.3283,4.3482,4.3303,4.3302,4.3302,4.3301,0,4.2557,4.2646,4.2672,4.2734,4.2833,4.284,4.2937,4.2961,4.3003,4.3069,4.3053,4.3115,4.3121,4.3184,4.319,4.3285,4.33,4.331,4.3311,4.3314,4.3313,4.3339,4.3331,4.3307,4.3306,4.3305,4.3304,0,4.2696,4.2716,4.2826,4.2879,4.2894,4.2965,4.3009,4.3068,4.3085,4.3169,4.3188,4.3214,4.3288,4.3301,4.3385,4.339,4.3505,4.3494,4.349,4.3489,4.3561,4.3555,4.3787,4.3818,4.3615,4.3617,4.3619,0,4.2794,4.2863,4.2924,4.2969,4.3001,4.3072,4.3117,4.3125,4.3171,4.3234,4.3286,4.3358,4.3417,4.3534,4.356,4.3625,4.3618,4.3694,4.3628,4.3628,4.3623,4.362,4.3628,4.3708,4.371,4.3712,4.3714,0,4.2967,4.2974,4.3041,4.3112,4.3166,4.3221,4.3273,4.3309,4.3324,4.3377,4.3454,4.35,4.3589,4.3661,4.3726,4.3752,4.3736,4.3734,4.3755,4.3759,4.3755,4.3761,4.3528,4.3729,4.3728,4.3727,4.3726,4.3725,4.309,4.3152,4.3206,4.328,4.3321,4.337,4.343,4.3455,4.352,4.3596,4.3595,4.368,4.3727,4.3814,4.3845,4.391,4.3885,4.3914,4.3922,4.393,4.3939,4.3742,4.3921,4.392,4.392,4.392,4.3919,0,4.3266,4.33,4.3368,4.3444,4.3503,4.3484,4.354,4.359,4.3666,4.3713,4.3772,4.3861,4.3931,4.3962,4.4031,4.4077,4.4071,4.4095,4.4093,4.41,4.3955,4.3932,4.4098,4.4098,4.4098,4.4098,4.4098,4.4098,4.3364,4.3468,4.3481,4.3604,4.3636,4.3722,4.3756,4.3802,4.384,4.3941,4.4,4.4021,4.4061,4.4133,4.4196,4.4203,4.423,4.4259,4.4262,4.4127,4.4109,4.4092,4.4071,4.4264,4.4264,4.4402,4.4403,4.4404]}]]